STARLINK-1847 1 46739U 20074A 21062.16667824 -.00030133 00000-0 -17201-2 0 9998 2 46739 53.0560 268.0468 0003176 137.8780 100.8523 15.12098712 20473 STARLINK-1848 1 46740U 20074B 21062.16667824 -.00019444 00000-0 -12896-2 0 9997 2 46740 53.0452 273.1611 0003407 85.8761 10.1752 15.06406096 20412 STARLINK-1865 1 46741U 20074C 21061.91667824 .00006532 00000-0 45719-3 0 9993 2 46741 53.0536 269.2573 0002842 83.0466 358.8974 15.06387689 1753 STARLINK-1872 1 46742U 20074D 21061.91667824 .00008969 00000-0 62070-3 0 9999 2 46742 53.0529 269.2468 0002783 87.7016 154.3548 15.06374597 1755 STARLINK-1892 1 46743U 20074E 21061.91667824 .00006478 00000-0 45329-3 0 9991 2 46743 53.0533 269.2554 0010628 43.1987 78.7464 15.06386152 1753 STARLINK-1894 1 46744U 20074F 21062.16667824 -.00000221 00000-0 40427-5 0 9997 2 46744 53.0561 268.1316 0001382 99.1671 199.3110 15.06394986 20468 STARLINK-1898 1 46745U 20074G 21061.91667824 .00009500 00000-0 65609-3 0 9995 2 46745 53.0531 269.2452 0002809 87.5606 174.3731 15.06381457 1755 STARLINK-1905 1 46746U 20074H 21062.16667824 -.00026737 00000-0 -17817-2 0 9994 2 46746 53.0529 268.1248 0002827 91.1933 127.2945 15.06418646 20484 STARLINK-1908 1 46747U 20074J 21062.16667824 -.00029361 00000-0 -19598-2 0 9999 2 46747 53.0557 268.1359 0002661 87.1859 231.1661 15.06406963 20486 STARLINK-1910 1 46748U 20074K 21062.16667824 -.00028398 00000-0 -18926-2 0 9993 2 46748 53.0548 268.1297 0007773 47.5181 230.9717 15.06420096 20487 STARLINK-1911 1 46749U 20074L 21062.16667824 -.00027634 00000-0 -18433-2 0 9999 2 46749 53.0530 268.1290 0002600 85.8947 152.5854 15.06401187 20482 STARLINK-1920 1 46751U 20074N 21062.16667824 -.00027903 00000-0 -18608-2 0 9995 2 46751 53.0544 268.1287 0002905 94.4386 163.9718 15.06413793 20488 STARLINK-1921 1 46752U 20074P 21062.16667824 .00284167 00000-0 18459-1 0 9994 2 46752 53.0545 268.1298 0004355 18.0035 180.7492 15.06161047 20484 STARLINK-1922 1 46753U 20074Q 21062.16667824 -.00028343 00000-0 -18903-2 0 9994 2 46753 53.0535 268.1340 0002694 91.4949 287.0282 15.06419423 20498 STARLINK-1923 1 46754U 20074R 21062.16667824 -.00029297 00000-0 -19553-2 0 9996 2 46754 53.0534 268.1334 0002789 87.8988 250.5250 15.06410536 20483 STARLINK-1924 1 46755U 20074S 21062.16667824 -.00023362 00000-0 -15539-2 0 9994 2 46755 53.0525 273.1359 0003055 86.5741 189.5356 15.06412462 20418 STARLINK-1925 1 46756U 20074T 21061.91667824 -.00000853 00000-0 -38326-4 0 9998 2 46756 53.0536 274.2591 0002809 85.0297 354.5364 15.06383471 1753 STARLINK-1926 1 46757U 20074U 21062.16667824 -.00018719 00000-0 -12404-2 0 9994 2 46757 53.0528 273.1454 0003333 86.9028 109.2028 15.06413601 20411 STARLINK-1928 1 46758U 20074V 21061.91667824 -.00001079 00000-0 -53532-4 0 9997 2 46758 53.0605 274.2325 0003055 89.2348 45.2215 15.06394451 1753 STARLINK-1833 1 46759U 20074W 21062.16667824 -.00003627 00000-0 -22468-3 0 9990 2 46759 53.0485 283.1431 0002537 82.5339 353.3361 15.06393772 19992 STARLINK-1896 1 46760U 20074X 21062.16667824 -.00009474 00000-0 -61794-3 0 9993 2 46760 53.0551 283.1346 0002972 81.3603 294.6247 15.06394857 20286 STARLINK-1897 1 46761U 20074Y 21062.16667824 -.00006885 00000-0 -44362-3 0 9999 2 46761 53.0555 283.1367 0002450 78.0969 317.8102 15.06408857 20287 STARLINK-1901 1 46762U 20074Z 21062.16667824 -.00000329 00000-0 -32075-5 0 9997 2 46762 53.0536 283.1235 0001370 94.1027 161.8754 15.06394802 20278 STARLINK-1902 1 46763U 20074AA 21061.91667824 -.00011739 00000-0 -77068-3 0 9996 2 46763 53.0534 284.2446 0003030 84.1648 315.3964 15.06385171 1767 STARLINK-1903 1 46764U 20074AB 21062.16667824 -.00005376 00000-0 -34217-3 0 9994 2 46764 53.0555 283.1348 0002730 84.7393 331.1856 15.06404464 20280 STARLINK-1906 1 46765U 20074AC 21062.16667824 -.00001101 00000-0 -54957-4 0 9991 2 46765 53.0501 283.1450 0002309 80.6463 35.2757 15.06417717 19983 STARLINK-1916 1 46766U 20074AD 21062.16667824 -.00002650 00000-0 -15914-3 0 9991 2 46766 53.0525 283.1446 0002147 80.6274 75.4303 15.06383019 19996 STARLINK-1917 1 46767U 20074AE 21062.16667824 -.00011213 00000-0 -73481-3 0 9990 2 46767 53.0555 283.1372 0002222 85.1667 270.8187 15.06410957 20274 STARLINK-1918 1 46768U 20074AF 21062.16667824 -.00012474 00000-0 -81957-3 0 9998 2 46768 53.0532 283.1237 0002360 80.9856 255.0135 15.06414673 20284 STARLINK-1919 1 46769U 20074AG 21062.16667824 -.00009935 00000-0 -64900-3 0 9996 2 46769 53.0532 283.1307 0002516 82.9704 152.9485 15.06395880 19997 STARLINK-1932 1 46770U 20074AH 21062.16667824 -.00008513 00000-0 -55322-3 0 9997 2 46770 53.0539 283.1365 0002849 85.7290 135.3121 15.06399081 20272 STARLINK-1935 1 46771U 20074AJ 21062.16667824 -.00012024 00000-0 -78953-3 0 9995 2 46771 53.0538 283.1294 0002483 84.5120 191.4515 15.06402190 20272 STARLINK-1936 1 46772U 20074AK 21062.16667824 -.00013151 00000-0 -86515-3 0 9991 2 46772 53.0541 283.1324 0002472 82.2006 213.7771 15.06414772 20278 STARLINK-1937 1 46773U 20074AL 21062.16667824 -.00001267 00000-0 -66156-4 0 9997 2 46773 53.0528 283.1463 0002657 84.2818 51.6427 15.06386584 20261 STARLINK-1939 1 46774U 20074AM 21062.16667824 -.00003472 00000-0 -21422-3 0 9994 2 46774 53.0523 283.1420 0002531 79.6800 96.1713 15.06407475 20265 STARLINK-1945 1 46775U 20074AN 21062.16667824 -.00001875 00000-0 -10699-3 0 9994 2 46775 53.0497 283.1348 0002583 79.9013 16.1085 15.06387183 19941 STARLINK-1946 1 46776U 20074AP 21062.16667824 -.00040959 00000-0 -27459-2 0 9992 2 46776 53.0538 283.1354 0002940 86.8222 129.2438 15.06406368 19946 STARLINK-1949 1 46777U 20074AQ 21062.16667824 -.00005275 00000-0 -33512-3 0 9993 2 46777 53.0521 283.1389 0006491 102.1947 93.7828 15.06405488 20265 STARLINK-1798 1 46779U 20074AS 21061.91667824 .00023931 00000-0 16214-2 0 9993 2 46779 53.0393 259.3280 0001968 78.0108 138.9412 15.06367845 1751 STARLINK-1832 1 46780U 20074AT 21061.91667824 .00023141 00000-0 15685-2 0 9999 2 46780 53.0483 259.2767 0001969 83.1237 193.7681 15.06371221 1753 STARLINK-1834 1 46781U 20074AU 21061.91667824 .00008015 00000-0 55655-3 0 9995 2 46781 53.0565 269.2254 0002891 92.1578 89.7848 15.06386726 1755 STARLINK-1835 1 46782U 20074AV 21061.91667824 .00019628 00000-0 13332-2 0 9993 2 46782 53.0524 259.2423 0001876 79.6164 257.3781 15.06392746 1759 STARLINK-1851 1 46783U 20074AW 21061.91667824 .00023780 00000-0 16111-2 0 9996 2 46783 53.0458 259.2835 0001930 80.3426 176.5458 15.06372342 1757 STARLINK-1882 1 46784U 20074AX 21061.91667824 .00024007 00000-0 16260-2 0 9995 2 46784 53.0428 259.3041 0002081 80.5288 156.4303 15.06379029 1756 STARLINK-1883 1 46785U 20074AY 21061.91667824 .00013073 00000-0 91525-3 0 9995 2 46785 53.0538 259.1846 0004955 305.1702 42.1318 15.05553225 1757 STARLINK-1893 1 46786U 20074AZ 21062.16667824 -.00029018 00000-0 -73790-3 0 9996 2 46786 53.0522 252.0911 0001509 51.1267 103.7648 15.38796746 20374 STARLINK-1899 1 46787U 20074BA 21061.91667824 .00043688 00000-0 11273-2 0 9993 2 46787 53.0524 253.2842 0001661 57.2211 150.0578 15.38753592 1769 STARLINK-1929 1 46788U 20074BB 21062.16667824 -.00028956 00000-0 -73628-3 0 9998 2 46788 53.0522 252.0974 0001608 51.6450 99.2925 15.38797230 20370 STARLINK-1930 1 46789U 20074BC 21062.16667824 -.00002910 00000-0 -17655-3 0 9999 2 46789 53.0540 268.1317 0001391 95.7894 287.8130 15.06396374 20158 STARLINK-1931 1 46790U 20074BD 21061.91667824 .00008580 00000-0 59425-3 0 9991 2 46790 53.0485 269.2719 0002542 93.6004 128.3397 15.06395141 1755 STARLINK-1933 1 46791U 20074BE 21062.16667824 -.00026210 00000-0 -17466-2 0 9990 2 46791 53.0548 268.1229 0002590 93.2171 325.1936 15.06408384 20159 STARLINK-1934 1 46792U 20074BF 21061.91667824 .00018420 00000-0 12525-2 0 9996 2 46792 53.0536 259.2431 0001921 84.6721 272.3560 15.06392680 1757 STARLINK-1941 1 46793U 20074BG 21062.16667824 -.00062936 00000-0 -42384-2 0 9994 2 46793 53.0460 268.1589 0001832 99.4067 19.0350 15.06445344 20148 STARLINK-1942 1 46794U 20074BH 21062.16667824 -.00025737 00000-0 -17146-2 0 9991 2 46794 53.0547 268.1313 0002678 93.5622 344.8873 15.06408538 20155 STARLINK-1943 1 46795U 20074BJ 21062.16667824 -.00029284 00000-0 -74499-3 0 9998 2 46795 53.0520 252.0632 0001628 48.7558 120.2044 15.38788432 20433 STARLINK-1944 1 46796U 20074BK 21061.91667824 .00022216 00000-0 15068-2 0 9993 2 46796 53.0526 259.2469 0001959 80.9572 215.9358 15.06371542 1757 STARLINK-1947 1 46797U 20074BL 21061.91667824 .00044667 00000-0 11525-2 0 9992 2 46797 53.0522 253.2465 0001545 51.2598 170.0424 15.38745578 1769 STARLINK-1948 1 46798U 20074BM 21062.16667824 -.00053151 00000-0 -35730-2 0 9995 2 46798 53.0545 283.1299 0002663 87.5813 313.5614 15.06428946 20001